LGX07AA LIMJ-DAAG

Flight info

Callsign LGX07AA
Flight time 1h 41m
Altitude 37000
Route LAGEN Q712 ENOBA Z185 BORDI N736 PIGOS N86 MAMES M984 BISBA N975 BGR N855 BUYAH
Aircraft B752/M-SDE2E3FGHIJ3J4J7RWXY/LB1

Departure

Time 2026-05-06 16:21
Airport Genoa Cristoforo Colombo Airport (LIMJ)

Arrival

Time 2026-05-06 18:02
Airport Houari Boumediene Airport (DAAG)
Time Latitude Longitude Altitude Speed Heading
2026-05-06 15:58 44.41563 8.84751 33 ft 0 kts 323°
2026-05-06 16:16 44.41566 8.84749 31 ft 1 kts 336°
2026-05-06 16:16 44.41583 8.84762 31 ft 4 kts 71°
2026-05-06 16:16 44.41539 8.84785 32 ft 12 kts 202°
2026-05-06 16:16 44.41461 8.84675 29 ft 14 kts 230°
2026-05-06 16:17 44.41405 8.84685 28 ft 8 kts 117°
2026-05-06 16:17 44.41385 8.84778 30 ft 11 kts 105°
2026-05-06 16:17 44.41360 8.84907 30 ft 16 kts 103°
2026-05-06 16:17 44.41333 8.85067 29 ft 17 kts 106°
2026-05-06 16:18 44.41295 8.85227 26 ft 16 kts 124°
2026-05-06 16:18 44.41196 8.85270 24 ft 15 kts 192°
2026-05-06 16:18 44.41098 8.85234 24 ft 13 kts 198°
2026-05-06 16:18 44.41028 8.85191 24 ft 8 kts 168°
2026-05-06 16:19 44.40982 8.85270 22 ft 14 kts 109°
2026-05-06 16:19 44.40945 8.85453 20 ft 24 kts 105°
2026-05-06 16:19 44.40898 8.85682 20 ft 24 kts 106°
2026-05-06 16:19 44.40857 8.85903 20 ft 21 kts 103°
2026-05-06 16:20 44.40866 8.86044 20 ft 9 kts 123°
2026-05-06 16:20 44.40839 8.86025 20 ft 5 kts 277°
2026-05-06 16:20 44.40866 8.85862 20 ft 43 kts 285°
2026-05-06 16:20 44.41010 8.85121 25 ft 112 kts 285°
2026-05-06 16:21 44.41270 8.83797 62 ft 167 kts 282°
2026-05-06 16:21 44.41554 8.82197 658 ft 174 kts 280°
2026-05-06 16:21 44.41878 8.80536 1342 ft 186 kts 282°
2026-05-06 16:21 44.42200 8.78788 2028 ft 183 kts 272°
2026-05-06 16:22 44.41958 8.77057 2200 ft 190 kts 231°
2026-05-06 16:22 44.40931 8.76051 2741 ft 180 kts 190°
2026-05-06 16:22 44.39690 8.76290 3157 ft 188 kts 156°
2026-05-06 16:22 44.38544 8.77154 3664 ft 187 kts 156°
2026-05-06 16:23 44.37400 8.78021 4104 ft 190 kts 155°
2026-05-06 16:23 44.36243 8.78941 4564 ft 192 kts 154°
2026-05-06 16:23 44.35086 8.79894 4986 ft 196 kts 154°
2026-05-06 16:23 44.33902 8.80843 5388 ft 199 kts 164°
2026-05-06 16:24 44.32489 8.81149 5466 ft 218 kts 182°
2026-05-06 16:24 44.30916 8.81181 5726 ft 235 kts 182°
2026-05-06 16:24 44.29200 8.81175 6012 ft 253 kts 183°
2026-05-06 16:24 44.27422 8.80944 6414 ft 263 kts 200°
2026-05-06 16:25 44.25894 8.79629 7107 ft 261 kts 228°
2026-05-06 16:25 44.24981 8.77465 7694 ft 267 kts 254°
2026-05-06 16:25 44.24640 8.74909 8377 ft 269 kts 257°
2026-05-06 16:25 44.24229 8.72363 8995 ft 273 kts 254°
2026-05-06 16:26 44.23748 8.69822 9720 ft 274 kts 253°
2026-05-06 16:26 44.23228 8.67255 10245 ft 281 kts 252°
2026-05-06 16:26 44.22652 8.64546 10436 ft 302 kts 252°
2026-05-06 16:26 44.22034 8.61706 10677 ft 320 kts 252°
2026-05-06 16:27 44.21364 8.58672 11020 ft 334 kts 252°
2026-05-06 16:27 44.20675 8.55573 11762 ft 336 kts 252°
2026-05-06 16:27 44.19982 8.52472 12436 ft 338 kts 252°
2026-05-06 16:27 44.19276 8.49327 13077 ft 342 kts 252°
2026-05-06 16:28 44.18570 8.46182 13702 ft 345 kts 251°
2026-05-06 16:28 44.17859 8.43030 14416 ft 343 kts 251°
2026-05-06 16:28 44.17140 8.39845 15072 ft 343 kts 251°
2026-05-06 16:28 44.16425 8.36684 15605 ft 346 kts 251°
2026-05-06 16:29 44.15707 8.33521 16255 ft 344 kts 250°
2026-05-06 16:29 44.14992 8.30367 16823 ft 345 kts 250°
2026-05-06 16:29 44.14269 8.27184 17351 ft 346 kts 250°
2026-05-06 16:29 44.13547 8.24015 17851 ft 348 kts 250°
2026-05-06 16:30 44.12810 8.20786 18440 ft 347 kts 250°
2026-05-06 16:30 44.12327 8.18667 18820 ft 347 kts 250°
2026-05-06 16:30 44.11349 8.14388 19420 ft 350 kts 250°
2026-05-06 16:30 44.10610 8.11164 19816 ft 355 kts 250°
2026-05-06 16:31 44.09864 8.07910 20316 ft 355 kts 249°
2026-05-06 16:31 44.09104 8.04602 20725 ft 359 kts 249°
2026-05-06 16:31 44.08354 8.01339 21217 ft 359 kts 249°
2026-05-06 16:31 44.07588 7.98013 21705 ft 359 kts 249°
2026-05-06 16:32 44.06833 7.94744 22098 ft 362 kts 249°
2026-05-06 16:32 44.06058 7.91389 22546 ft 363 kts 249°
2026-05-06 16:32 44.05281 7.88036 22935 ft 366 kts 249°
2026-05-06 16:32 44.04510 7.84704 23387 ft 366 kts 249°
2026-05-06 16:33 44.03727 7.81338 23775 ft 368 kts 248°
2026-05-06 16:33 44.02708 7.78091 24193 ft 365 kts 238°
2026-05-06 16:33 44.01241 7.75215 24459 ft 368 kts 227°
2026-05-06 16:34 43.97302 7.70699 25169 ft 371 kts 217°
2026-05-06 16:34 43.95224 7.68612 25584 ft 371 kts 217°
2026-05-06 16:34 43.93123 7.66540 25806 ft 375 kts 217°
2026-05-06 16:34 43.90976 7.64451 26238 ft 374 kts 216°
2026-05-06 16:35 43.88860 7.62408 26509 ft 378 kts 216°
2026-05-06 16:35 43.86681 7.60316 26889 ft 378 kts 216°
2026-05-06 16:35 43.83803 7.57565 27289 ft 382 kts 216°
2026-05-06 16:35 43.82352 7.56182 27563 ft 381 kts 216°
2026-05-06 16:36 43.80158 7.54092 27818 ft 384 kts 216°
2026-05-06 16:36 43.77955 7.52002 28179 ft 385 kts 216°
2026-05-06 16:36 43.75735 7.49897 28438 ft 387 kts 216°
2026-05-06 16:36 43.73516 7.47794 28755 ft 389 kts 216°
2026-05-06 16:37 43.71282 7.45683 29085 ft 389 kts 216°
2026-05-06 16:37 43.69061 7.43584 29349 ft 391 kts 216°
2026-05-06 16:37 43.66824 7.41470 29630 ft 393 kts 216°
2026-05-06 16:37 43.64546 7.39321 29882 ft 395 kts 216°
2026-05-06 16:38 43.62237 7.37246 30137 ft 398 kts 211°
2026-05-06 16:38 43.59757 7.35552 30370 ft 400 kts 208°
2026-05-06 16:38 43.57251 7.33891 30678 ft 401 kts 208°
2026-05-06 16:38 43.54755 7.32236 30793 ft 405 kts 208°
2026-05-06 16:39 43.52221 7.30564 31142 ft 404 kts 208°
2026-05-06 16:39 43.49655 7.28873 31270 ft 407 kts 208°
2026-05-06 16:39 43.47128 7.27213 31512 ft 408 kts 208°
2026-05-06 16:39 43.44552 7.25524 31769 ft 409 kts 208°
2026-05-06 16:40 43.42018 7.23865 32064 ft 408 kts 208°
2026-05-06 16:40 43.39459 7.22191 32384 ft 406 kts 208°
2026-05-06 16:40 43.36910 7.20525 32595 ft 407 kts 208°
2026-05-06 16:40 43.34343 7.18848 32887 ft 405 kts 208°
2026-05-06 16:41 43.31844 7.17220 33157 ft 404 kts 208°
2026-05-06 16:41 43.29284 7.15552 33304 ft 405 kts 208°
2026-05-06 16:41 43.26768 7.13916 33589 ft 403 kts 208°
2026-05-06 16:41 43.24245 7.12245 33724 ft 403 kts 211°
2026-05-06 16:42 43.21923 7.10155 33882 ft 400 kts 221°
2026-05-06 16:42 43.19943 7.07510 34096 ft 398 kts 230°
2026-05-06 16:42 43.18356 7.04383 34248 ft 400 kts 239°
2026-05-06 16:42 43.17240 7.00902 34462 ft 401 kts 249°
2026-05-06 16:43 43.16615 6.97189 34559 ft 407 kts 258°
2026-05-06 16:43 43.16365 6.93338 34660 ft 407 kts 258°
2026-05-06 16:43 43.15770 6.89576 34762 ft 402 kts 248°
2026-05-06 16:44 43.13261 6.82841 34947 ft 398 kts 238°
2026-05-06 16:44 43.10686 6.76113 35071 ft 401 kts 242°
2026-05-06 16:44 43.09500 6.72688 35203 ft 400 kts 243°
2026-05-06 16:45 43.08353 6.69258 35251 ft 401 kts 244°
2026-05-06 16:45 43.06088 6.62247 35407 ft 402 kts 245°
2026-05-06 16:46 43.03882 6.55258 35518 ft 403 kts 245°
2026-05-06 16:46 43.01692 6.48260 35648 ft 402 kts 245°
2026-05-06 16:47 42.99495 6.41219 35722 ft 402 kts 245°
2026-05-06 16:47 42.97315 6.34237 35799 ft 403 kts 245°
2026-05-06 16:48 42.95127 6.27242 35893 ft 402 kts 245°
2026-05-06 16:48 42.92931 6.20235 35965 ft 403 kts 245°
2026-05-06 16:49 42.90717 6.13190 36004 ft 405 kts 245°
2026-05-06 16:49 42.88501 6.06158 36103 ft 405 kts 245°
2026-05-06 16:50 42.86282 5.99132 36169 ft 406 kts 245°
2026-05-06 16:50 42.84050 5.92087 36251 ft 406 kts 245°
2026-05-06 16:51 42.81816 5.85051 36364 ft 406 kts 245°
2026-05-06 16:51 42.79576 5.78019 36394 ft 407 kts 245°
2026-05-06 16:52 42.77325 5.70968 36570 ft 404 kts 245°
2026-05-06 16:52 42.76211 5.67485 36682 ft 402 kts 245°
2026-05-06 16:52 42.75097 5.64006 36797 ft 400 kts 245°
2026-05-06 16:53 42.72912 5.57199 36905 ft 393 kts 245°
2026-05-06 16:53 42.70727 5.50406 36912 ft 391 kts 246°
2026-05-06 16:54 42.68554 5.43668 36916 ft 389 kts 246°
2026-05-06 16:54 42.66386 5.36967 36912 ft 387 kts 246°
2026-05-06 16:55 42.64232 5.30322 36925 ft 386 kts 245°
2026-05-06 16:55 42.62087 5.23721 36926 ft 385 kts 245°
2026-05-06 16:56 42.59929 5.17095 36924 ft 384 kts 245°
2026-05-06 16:56 42.57771 5.10486 36923 ft 383 kts 245°
2026-05-06 16:57 42.55627 5.03939 36919 ft 381 kts 245°
2026-05-06 16:57 42.53471 4.97369 36938 ft 380 kts 245°
2026-05-06 16:58 42.51340 4.90892 36929 ft 379 kts 245°
2026-05-06 16:58 42.49195 4.84388 36916 ft 378 kts 245°
2026-05-06 16:59 42.47064 4.77940 36931 ft 377 kts 245°
2026-05-06 16:59 42.44923 4.71478 36678 ft 381 kts 245°
2026-05-06 16:59 42.43828 4.68181 36442 ft 388 kts 245°
2026-05-06 17:00 42.42728 4.64874 36207 ft 395 kts 245°
2026-05-06 17:00 42.41591 4.61456 35972 ft 403 kts 245°
2026-05-06 17:00 42.40423 4.57952 35781 ft 410 kts 245°
2026-05-06 17:00 42.39247 4.54429 35588 ft 414 kts 245°
2026-05-06 17:01 42.38065 4.50890 35410 ft 414 kts 245°
2026-05-06 17:01 42.36887 4.47367 35228 ft 411 kts 245°
2026-05-06 17:01 42.35728 4.43905 35033 ft 408 kts 245°
2026-05-06 17:02 42.33403 4.36975 34928 ft 405 kts 245°
2026-05-06 17:02 42.30360 4.30619 34955 ft 405 kts 227°
2026-05-06 17:03 42.25772 4.26172 34972 ft 414 kts 208°
2026-05-06 17:03 42.20198 4.24206 34971 ft 425 kts 189°
2026-05-06 17:04 42.14252 4.24123 34977 ft 425 kts 193°
2026-05-06 17:04 42.08700 4.21911 34975 ft 410 kts 212°
2026-05-06 17:05 42.03625 4.18515 34969 ft 411 kts 209°
2026-05-06 17:05 41.98385 4.15460 34954 ft 410 kts 207°
2026-05-06 17:06 41.93105 4.12565 34965 ft 411 kts 207°
2026-05-06 17:06 41.87821 4.09756 34966 ft 410 kts 206°
2026-05-06 17:07 41.82487 4.06958 34970 ft 411 kts 206°
2026-05-06 17:07 41.77166 4.04188 34965 ft 412 kts 206°
2026-05-06 17:08 41.71814 4.01414 34969 ft 412 kts 206°
2026-05-06 17:08 41.66502 3.98668 34962 ft 411 kts 206°
2026-05-06 17:09 41.61152 3.95908 34969 ft 413 kts 206°
2026-05-06 17:09 41.55806 3.93155 34959 ft 412 kts 206°
2026-05-06 17:10 41.50504 3.90431 34956 ft 412 kts 206°
2026-05-06 17:10 41.45126 3.87671 34950 ft 413 kts 206°
2026-05-06 17:11 41.39795 3.84942 34943 ft 411 kts 206°
2026-05-06 17:11 41.34450 3.82209 34942 ft 412 kts 206°
2026-05-06 17:12 41.29121 3.79489 34941 ft 412 kts 206°
2026-05-06 17:12 41.23801 3.76781 34942 ft 410 kts 207°
2026-05-06 17:13 41.18441 3.74054 34939 ft 412 kts 207°
2026-05-06 17:13 41.13108 3.71347 34943 ft 411 kts 207°
2026-05-06 17:14 41.07788 3.68651 34951 ft 411 kts 206°
2026-05-06 17:14 41.02455 3.65954 34949 ft 410 kts 207°
2026-05-06 17:15 40.97148 3.63274 34945 ft 410 kts 207°
2026-05-06 17:15 40.91821 3.60588 34944 ft 412 kts 207°
2026-05-06 17:16 40.86457 3.57889 34953 ft 414 kts 207°
2026-05-06 17:16 40.81080 3.55188 34950 ft 412 kts 207°
2026-05-06 17:17 40.75720 3.52500 34946 ft 413 kts 207°
2026-05-06 17:17 40.70391 3.49832 34948 ft 412 kts 207°
2026-05-06 17:18 40.65028 3.47152 34950 ft 412 kts 207°
2026-05-06 17:18 40.59679 3.44483 34950 ft 413 kts 207°
2026-05-06 17:19 40.54306 3.41807 34951 ft 412 kts 206°
2026-05-06 17:19 40.48963 3.39150 34954 ft 413 kts 207°
2026-05-06 17:20 40.43617 3.36498 34950 ft 413 kts 207°
2026-05-06 17:20 40.38235 3.33830 34959 ft 415 kts 206°
2026-05-06 17:21 40.32811 3.31147 34962 ft 415 kts 206°
2026-05-06 17:21 40.27461 3.28506 34959 ft 414 kts 206°
2026-05-06 17:22 40.22028 3.25827 34954 ft 415 kts 206°
2026-05-06 17:22 40.16653 3.23182 34951 ft 415 kts 206°
2026-05-06 17:23 40.11240 3.20523 34948 ft 416 kts 206°
2026-05-06 17:23 40.05831 3.17870 34946 ft 415 kts 206°
2026-05-06 17:24 40.00447 3.15234 34947 ft 416 kts 206°
2026-05-06 17:24 39.95004 3.12624 34942 ft 418 kts 202°
2026-05-06 17:25 39.89187 3.11673 34957 ft 433 kts 187°
2026-05-06 17:25 39.83140 3.11718 34949 ft 433 kts 186°
2026-05-06 17:26 39.77124 3.11804 34948 ft 434 kts 186°
2026-05-06 17:26 39.71067 3.11913 34950 ft 435 kts 186°
2026-05-06 17:27 39.65022 3.12031 34951 ft 436 kts 186°
2026-05-06 17:27 39.58965 3.12153 34950 ft 436 kts 186°
2026-05-06 17:28 39.52929 3.12276 34949 ft 435 kts 186°
2026-05-06 17:28 39.46890 3.12398 34948 ft 436 kts 186°
2026-05-06 17:29 39.40819 3.12521 34949 ft 437 kts 185°
2026-05-06 17:29 39.34720 3.12646 34946 ft 437 kts 186°
2026-05-06 17:30 39.28677 3.12768 34944 ft 437 kts 185°
2026-05-06 17:30 39.22589 3.12892 34942 ft 438 kts 185°
2026-05-06 17:31 39.16495 3.13015 34942 ft 438 kts 185°
2026-05-06 17:31 39.10379 3.13139 34942 ft 438 kts 185°
2026-05-06 17:32 39.04282 3.13266 34942 ft 438 kts 185°
2026-05-06 17:32 38.98207 3.13393 34940 ft 438 kts 185°
2026-05-06 17:33 38.92121 3.13515 34939 ft 440 kts 185°
2026-05-06 17:33 38.86015 3.13639 34943 ft 440 kts 185°
2026-05-06 17:34 38.79883 3.13762 34942 ft 440 kts 185°
2026-05-06 17:34 38.73894 3.13889 34927 ft 417 kts 185°
2026-05-06 17:34 38.71045 3.13951 34926 ft 401 kts 186°
2026-05-06 17:35 38.68268 3.14004 34936 ft 397 kts 186°
2026-05-06 17:35 38.62711 3.14107 34913 ft 405 kts 186°
2026-05-06 17:36 38.56958 3.14216 33975 ft 419 kts 185°
2026-05-06 17:36 38.54033 3.14278 33437 ft 415 kts 185°
2026-05-06 17:36 38.51172 3.14338 32905 ft 413 kts 185°
2026-05-06 17:36 38.48306 3.14396 32376 ft 413 kts 185°
2026-05-06 17:37 38.45437 3.14453 31877 ft 415 kts 185°
2026-05-06 17:37 38.42536 3.14511 31485 ft 417 kts 185°
2026-05-06 17:37 38.39648 3.14568 31095 ft 420 kts 185°
2026-05-06 17:37 38.36720 3.14627 30702 ft 423 kts 184°
2026-05-06 17:38 38.33775 3.14686 30306 ft 424 kts 184°
2026-05-06 17:38 38.30832 3.14746 29909 ft 424 kts 184°
2026-05-06 17:38 38.27871 3.14806 29474 ft 426 kts 184°
2026-05-06 17:38 38.24900 3.14864 28933 ft 428 kts 184°
2026-05-06 17:39 38.21923 3.14924 28403 ft 430 kts 184°
2026-05-06 17:39 38.18948 3.14984 27881 ft 430 kts 184°
2026-05-06 17:39 38.15964 3.15044 27358 ft 431 kts 184°
2026-05-06 17:39 38.12957 3.15087 26831 ft 431 kts 186°
2026-05-06 17:40 38.10004 3.14703 26320 ft 424 kts 194°
2026-05-06 17:40 38.07116 3.13974 25801 ft 421 kts 195°
2026-05-06 17:40 38.04260 3.13251 25276 ft 418 kts 195°
2026-05-06 17:40 38.01443 3.12525 24754 ft 415 kts 195°
2026-05-06 17:41 37.98616 3.11793 24228 ft 412 kts 195°
2026-05-06 17:41 37.95837 3.11069 23710 ft 409 kts 195°
2026-05-06 17:41 37.93053 3.10342 23192 ft 406 kts 195°
2026-05-06 17:41 37.90302 3.09623 22684 ft 402 kts 195°
2026-05-06 17:42 37.87572 3.08909 22181 ft 399 kts 195°
2026-05-06 17:42 37.84856 3.08198 21679 ft 397 kts 195°
2026-05-06 17:42 37.82170 3.07495 21180 ft 396 kts 195°
2026-05-06 17:42 37.79465 3.06788 20679 ft 395 kts 195°
2026-05-06 17:43 37.76786 3.06088 20181 ft 393 kts 195°
2026-05-06 17:43 37.74136 3.05396 19683 ft 390 kts 195°
2026-05-06 17:43 37.71473 3.04702 19180 ft 387 kts 194°
2026-05-06 17:43 37.68873 3.04024 18685 ft 384 kts 194°
2026-05-06 17:44 37.66246 3.03341 18183 ft 381 kts 194°
2026-05-06 17:44 37.63673 3.02670 17695 ft 379 kts 194°
2026-05-06 17:44 37.61089 3.01999 17205 ft 376 kts 194°
2026-05-06 17:44 37.58533 3.01334 16716 ft 374 kts 194°
2026-05-06 17:45 37.56014 3.00680 16230 ft 372 kts 194°
2026-05-06 17:45 37.53470 3.00019 15737 ft 370 kts 194°
2026-05-06 17:45 37.50985 2.99375 15253 ft 368 kts 194°
2026-05-06 17:45 37.48465 2.98722 14758 ft 366 kts 194°
2026-05-06 17:46 37.45996 2.98082 14273 ft 365 kts 193°
2026-05-06 17:46 37.43521 2.97441 13782 ft 363 kts 193°
2026-05-06 17:46 37.41059 2.96805 13288 ft 360 kts 193°
2026-05-06 17:46 37.38625 2.96175 12815 ft 357 kts 193°
2026-05-06 17:47 37.36192 2.95547 12439 ft 353 kts 193°
2026-05-06 17:47 37.33780 2.94924 12065 ft 352 kts 193°
2026-05-06 17:47 37.31408 2.94312 11702 ft 353 kts 193°
2026-05-06 17:47 37.28990 2.93689 11330 ft 353 kts 193°
2026-05-06 17:48 37.26581 2.93068 10957 ft 351 kts 193°
2026-05-06 17:48 37.24196 2.92454 10658 ft 345 kts 193°
2026-05-06 17:48 37.21893 2.91863 10404 ft 336 kts 193°
2026-05-06 17:48 37.19636 2.91283 10147 ft 326 kts 193°
2026-05-06 17:49 37.17430 2.90715 9890 ft 318 kts 193°
2026-05-06 17:49 37.15295 2.90167 9635 ft 310 kts 193°
2026-05-06 17:49 37.13191 2.89627 9379 ft 303 kts 193°
2026-05-06 17:49 37.11152 2.89103 9125 ft 297 kts 192°
2026-05-06 17:50 37.09159 2.88592 8873 ft 291 kts 192°
2026-05-06 17:50 37.07195 2.88089 8619 ft 285 kts 192°
2026-05-06 17:50 37.05259 2.87593 8365 ft 280 kts 193°
2026-05-06 17:50 37.03359 2.87107 8111 ft 275 kts 193°
2026-05-06 17:51 37.01494 2.86630 7850 ft 271 kts 193°
2026-05-06 17:51 36.99676 2.86165 7617 ft 266 kts 193°
2026-05-06 17:51 36.97877 2.85705 7440 ft 259 kts 193°
2026-05-06 17:51 36.96140 2.85261 7259 ft 253 kts 193°
2026-05-06 17:52 36.94413 2.84820 7066 ft 247 kts 193°
2026-05-06 17:52 36.92753 2.84396 6883 ft 244 kts 193°
2026-05-06 17:52 36.91085 2.83970 6702 ft 244 kts 193°
2026-05-06 17:52 36.89424 2.83546 6541 ft 246 kts 193°
2026-05-06 17:53 36.87738 2.83116 6361 ft 246 kts 193°
2026-05-06 17:53 36.86066 2.82690 6194 ft 246 kts 193°
2026-05-06 17:53 36.84402 2.82266 6000 ft 242 kts 193°
2026-05-06 17:53 36.82768 2.81861 5818 ft 237 kts 192°
2026-05-06 17:54 36.81147 2.81476 5579 ft 235 kts 192°
2026-05-06 17:54 36.79552 2.81099 5329 ft 233 kts 192°
2026-05-06 17:54 36.77970 2.80715 5063 ft 231 kts 192°
2026-05-06 17:54 36.76392 2.80327 4827 ft 228 kts 192°
2026-05-06 17:55 36.74845 2.79944 4573 ft 226 kts 192°
2026-05-06 17:55 36.73299 2.79553 4276 ft 226 kts 192°
2026-05-06 17:55 36.71746 2.79492 3979 ft 223 kts 163°
2026-05-06 17:55 36.70474 2.80453 3728 ft 216 kts 124°
2026-05-06 17:56 36.70026 2.82154 3516 ft 204 kts 90°
2026-05-06 17:56 36.69992 2.83875 3470 ft 190 kts 90°
2026-05-06 17:56 36.69938 2.85466 3454 ft 183 kts 90°
2026-05-06 17:56 36.69894 2.87058 3482 ft 190 kts 90°
2026-05-06 17:57 36.69850 2.88732 3470 ft 194 kts 90°
2026-05-06 17:57 36.69807 2.90407 3460 ft 190 kts 90°
2026-05-06 17:57 36.69768 2.92050 3463 ft 189 kts 89°
2026-05-06 17:57 36.69730 2.93681 3468 ft 190 kts 89°
2026-05-06 17:58 36.69693 2.95338 3418 ft 193 kts 90°
2026-05-06 17:58 36.69657 2.96988 3165 ft 189 kts 90°
2026-05-06 17:58 36.69620 2.98546 2955 ft 170 kts 89°
2026-05-06 17:58 36.69589 2.99951 2744 ft 156 kts 89°
2026-05-06 17:59 36.69561 3.01287 2525 ft 151 kts 89°
2026-05-06 17:59 36.69533 3.02567 2319 ft 147 kts 89°
2026-05-06 17:59 36.69506 3.03847 2129 ft 147 kts 89°
2026-05-06 17:59 36.69478 3.05121 1939 ft 147 kts 89°
2026-05-06 18:00 36.69451 3.06375 1747 ft 146 kts 90°
2026-05-06 18:00 36.69422 3.07648 1553 ft 146 kts 89°
2026-05-06 18:00 36.69394 3.08908 1350 ft 145 kts 90°
2026-05-06 18:00 36.69366 3.10157 1164 ft 146 kts 89°
2026-05-06 18:01 36.69338 3.11424 969 ft 148 kts 90°
2026-05-06 18:01 36.69308 3.12722 774 ft 149 kts 90°
2026-05-06 18:01 36.69278 3.14012 575 ft 151 kts 90°
2026-05-06 18:01 36.69248 3.15310 374 ft 151 kts 90°
2026-05-06 18:02 36.69220 3.16626 170 ft 152 kts 89°
2026-05-06 18:02 36.69194 3.17911 61 ft 141 kts 90°
2026-05-06 18:02 36.69174 3.18853 67 ft 69 kts 91°
2026-05-06 18:02 36.69165 3.19298 67 ft 37 kts 90°
2026-05-06 18:03 36.69161 3.19565 66 ft 26 kts 92°
2026-05-06 18:03 36.69172 3.19779 66 ft 23 kts 72°
2026-05-06 18:03 36.69241 3.19959 66 ft 21 kts 62°
2026-05-06 18:03 36.69292 3.20117 66 ft 18 kts 79°
2026-05-06 18:04 36.69318 3.20261 67 ft 15 kts 47°
2026-05-06 18:04 36.69417 3.20281 65 ft 14 kts 330°
2026-05-06 18:04 36.69451 3.20172 64 ft 13 kts 272°
2026-05-06 18:04 36.69452 3.20056 64 ft 13 kts 270°
2026-05-06 18:05 36.69455 3.19949 64 ft 9 kts 277°
2026-05-06 18:05 36.69485 3.19908 63 ft 7 kts 336°
2026-05-06 18:05 36.69569 3.19902 61 ft 18 kts
2026-05-06 18:05 36.69687 3.19905 61 ft 6 kts 358°
2026-05-06 18:06 36.69710 3.19874 60 ft 7 kts 284°
2026-05-06 18:06 36.69714 3.19820 59 ft 0 kts 271°